DW7572 Weather Reports


Display with metric or nautical units.
time (UTC)temp
F
wind
direction
speed
MPH
gust
MPH
rain 1hr
in
rain 24hr
in
rain mn
in
humidity
%
barometer
mb
20260504050017 54 248 5.0 8.0 0.00 0.00 0.00 53 1002.4
20260504043016 54 225 4.0 8.0 0.00 0.00 0.00 52 1002.8
20260504040017 55 225 3.0 6.0 0.00 0.00 0.00 52 1003.3
20260504033016 56 203 3.0 6.0 0.00 0.00 0.00 49 1003.9
20260504030016 58 203 3.0 5.0 0.00 0.00 0.00 46 1004.4
20260504023016 61 225 2.0 5.0 0.00 0.00 0.00 40 1004.5
20260504020016 64 0.0 1.0 0.00 0.00 0.00 35 1004.7
20260504013017 66 293 1.0 3.0 0.00 0.00 0.00 32 1004.8
20260504010016 68 293 4.0 10.0 0.00 0.00 0.00 30 1004.8
20260504003038 70 293 9.0 15.0 0.00 0.00 0.00 28 1005.1
20260504000118 71 315 11.0 19.0 0.00 0.00 0.00 27 1005.7
20260503233018 71 315 12.0 22.0 0.00 0.00 0.00 27 1005.8
20260503230018 71 315 14.0 22.0 0.00 0.00 0.00 27 1006.0
20260503223037 71 293 13.0 22.0 0.00 0.00 0.00 29 1006.2
20260503220018 72 315 12.0 24.0 0.00 0.00 0.00 32 1006.3
20260503213017 71 315 16.0 27.0 0.00 0.00 0.00 30 1006.4
20260503210039 71 315 15.0 26.0 0.00 0.00 0.00 31 1006.8
20260503203018 70 315 19.0 27.0 0.00 0.00 0.00 33 1007.2
20260503200037 70 315 19.0 33.0 0.00 0.00 0.00 33 1007.6
20260503193018 69 315 19.0 31.0 0.00 0.00 0.00 34 1007.9
20260503190016 69 338 18.0 33.0 0.00 0.00 0.00 34 1008.2
20260503183017 68 315 19.0 32.0 0.00 0.00 0.00 36 1008.1
20260503180016 68 315 20.0 31.0 0.00 0.00 0.00 36 1008.6
20260503173017 67 338 19.0 32.0 0.00 0.00 0.00 37 1008.8